Location: *
(43.9900°N, 3.4811°E)
Time: 14:23:50
(UTC+00:00)

Cosmos 1980 Rocket - Pass Details

Date: 25 August 2019
Orbit: 829 x 850 km, 71.0° (Epoch: 20 September)

Event Time Altitude Azimuth Distance (km) Brightness Sun altitude
Rises 19:57:02 0° 341° (NNW) 3,393 6.2 -14.4°
Reaches altitude 10° 19:59:45 10° 351° (N) 2,458 5.2 -14.8°
Maximum altitude 20:04:45 32° 54° (NE) 1,418 3.2 -15.6°
Enters shadow 20:07:22 22° 98° (E) 1,767 3.3 -16.0°
